Location: Breux
(46.3269°N, 3.2993°E)
Time: 15:32:13
(UTC+00:00)

Spot 2 Rocket - Pass Details

Date: 09 April 2020
Orbit: 757 x 773 km, 98.6° (Epoch: 27 May)

Event Time Altitude Azimuth Distance (km) Brightness Sun altitude
Exits shadow 20:22:15 36° 130° (SE) 1,200 4.0 -19.0°
Maximum altitude 20:24:05 57° 71° (ENE) 907 3.6 -19.2°
Drops below altitude 10° 20:29:06 10° 353° (N) 2,323 6.6 -19.9°
Sets 20:31:26 0° 350° (N) 3,252 7.5 -20.3°
